Regional Weather Roundup
Issued by NWS Goodland, KS

Home | Current Version | Previous Version | Text Only | Print | Product List | Glossary Off
Versions: 1 2 3 4 5 6 7 8 9 10 11 12 13 14 15 16 17 18 19 20 21 22 23 24 25 26 27 28 29 30 31 32 33 34 35 36 37 38 39 40 41 42 43 44 45 46 47 48 49 50

000
ASUS43 KGLD 300159
RWRGLD

GOODLAND FORECAST AREA HOURLY WEATHER ROUNDUP
NATIONAL WEATHER SERVICE GOODLAND KS
800 PM MDT FRI MAY 29 2015

...OFFICIAL OBSERVATIONS...

CITY           SKY/WX    TMP DP  RH WIND       PRES   REMARKS
GOODLAND KS    PTCLDY    54  48  80 N20G30    30.20R
HILL CITY KS   CLOUDY    60  54  80 N15G22    30.12R
IMPERIAL NEB   CLOUDY    53  45  74 N18       30.23R
MCCOOK NEB     CLOUDY    55  48  77 N20G26    30.17R
AKRON CO       CLOUDY    49  46  90 N16       30.27R
BURLINGTON CO  MOCLDY    56  48  74 N15       30.23R
LIMON CO       CLOUDY    53  47  79 N18G24    30.28R
$$

...UNOFFICIAL OBSERVATIONS...

CITY           SKY/WX    TMP DP  RH WIND       PRES   REMARKS
COLBY KS       CLOUDY    57  54  88 N14       30.18R
GOVE KS          N/A     61  32  33 MISG        N/A
NORTON KS      CLOUDY    55  46  71 N18G28    30.13R
SHARON SPRINGS   N/A     58  53  82 MISG        N/A
KIT CARSON CO    N/A     58  49  73 MISG        N/A
$$



USA.gov is the U.S. government's official web portal to all federal, state and local government web resources and services.